Temp
-8 -8 -8 -8 -9 -9 -9 -9 -9 -10 -10 -10 -10 -9 -9 -9 -9 -9 -9 -9 -9 -9 -9 -9 -9 -9 -9 -10 -10 -9 -10 -9 -10 -10 -10 -11 -11 -11 -10 -10 -11 -10 -10 -11 -11 -11 -10 -10 -10
-8 -8 -8 -8 -9 -9 -9 -9 -9 -10 -10 -10 -10 -10 -10 -10 -10 -9 -9 -10 -10 -10 -10 -10 -10 -10 -10 -10 -10 -10 -9 -10 -9 -10 -11 -11 -12 -11 -11 -11 -11 -11 -11 -10 -11 -11 -11 -11 -11
-9 -9 -9 -9 -9 -9 -9 -9 -9 -10 -10 -10 -10 -10 -10 -10 -10 -10 -10 -10 -10 -10 -10 -10 -11 -11 -11 -11 -10 -10 -10 -9 -10 -10 -11 -11 -11 -12 -11 -11 -11 -11 -11 -11 -11 -11 -11 -11 -11
-9 -9 -9 -9 -9 -9 -9 -9 -9 -10 -10 -10 -10 -10 -10 -10 -10 -10 -10 -10 -10 -10 -10 -10 -11 -11 -11 -11 -11 -10 -10 -10 -10 -11 -11 -11 -12 -12 -12 -11 -11 -11 -11 -11 -11 -11 -11 -11 -11
-9 -9 -9 -9 -9 -9 -9 -9 -9 -10 -10 -10 -10 -10 -10 -10 -10 -10 -10 -10 -10 -10 -10 -10 -11 -11 -11 -11 -11 -10 -10 -10 -11 -11 -11 -11 -12 -12 -12 -12 -11 -11 -11 -11 -11 -11 -11 -11 -12
-9 -9 -9 -9 -9 -10 -10 -10 -10 -10 -10 -10 -10 -10 -10 -10 -10 -10 -10 -10 -10 -10 -10 -11 -11 -11 -11 -10 -11 -11 -11 -12 -12 -12 -13 -13 -13 -12 -12 -12 -12 -11 -11 -11 -11 -11 -11 -11 -12
-10 -10 -10 -10 -10 -10 -10 -10 -10 -10 -10 -10 -10 -10 -10 -10 -10 -10 -10 -10 -10 -10 -11 -11 -11 -11 -11 -11 -12 -13 -14 -15 -15 -14 -14 -14 -14 -13 -13 -12 -12 -12 -11 -11 -11 -11 -12 -11 -11
-10 -10 -10 -10 -10 -10 -10 -10 -11 -11 -10 -10 -10 -10 -10 -10 -11 -10 -10 -10 -10 -10 -11 -11 -11 -12 -12 -13 -15 -16 -17 -17 -17 -16 -15 -14 -14 -13 -13 -13 -12 -13 -12 -11 -11 -12 -12 -12 -12
-10 -10 -10 -10 -10 -10 -10 -11 -11 -11 -11 -10 -10 -10 -10 -11 -11 -10 -10 -10 -11 -11 -11 -12 -12 -13 -14 -16 -16 -17 -17 -18 -19 -18 -17 -16 -15 -15 -14 -13 -13 -13 -12 -12 -12 -12 -12 -12 -12
-10 -10 -11 -11 -10 -10 -11 -11 -11 -11 -11 -10 -10 -10 -11 -11 -11 -10 -11 -11 -11 -11 -11 -12 -13 -14 -15 -16 -16 -17 -17 -18 -19 -19 -18 -18 -17 -16 -15 -14 -13 -13 -13 -12 -12 -12 -12 -12 -12
-11 -11 -11 -11 -11 -11 -11 -11 -11 -11 -11 -11 -11 -10 -11 -11 -11 -10 -11 -11 -11 -11 -12 -12 -14 -15 -15 -16 -16 -17 -17 -17 -18 -19 -18 -18 -18 -17 -16 -16 -14 -13 -13 -13 -13 -12 -12 -12 -12
-11 -11 -11 -11 -11 -11 -11 -11 -11 -11 -11 -11 -11 -11 -11 -11 -11 -11 -11 -11 -11 -12 -12 -14 -15 -15 -15 -16 -16 -17 -17 -17 -17 -19 -18 -18 -18 -18 -17 -16 -15 -14 -13 -13 -13 -13 -12 -12 -12
-11 -11 -11 -11 -11 -11 -11 -11 -11 -11 -11 -11 -11 -11 -11 -11 -11 -11 -11 -11 -12 -12 -13 -15 -15 -15 -16 -16 -16 -17 -17 -17 -17 -18 -18 -18 -18 -18 -17 -16 -16 -16 -14 -14 -13 -13 -12 -12 -12
-11 -11 -11 -11 -11 -11 -11 -11 -11 -11 -11 -11 -11 -12 -11 -11 -11 -11 -11 -11 -12 -13 -13 -15 -15 -16 -16 -16 -16 -16 -17 -18 -18 -18 -18 -18 -18 -18 -18 -16 -15 -16 -16 -15 -14 -13 -13 -13 -12
-11 -11 -11 -11 -11 -11 -11 -12 -11 -12 -12 -12 -11 -12 -11 -11 -11 -11 -12 -12 -12 -13 -14 -15 -15 -16 -17 -16 -16 -16 -17 -18 -18 -18 -18 -18 -18 -18 -18 -17 -16 -17 -17 -15 -14 -14 -13 -13 -13
-11 -11 -11 -11 -11 -11 -11 -12 -11 -11 -12 -11 -12 -12 -11 -11 -12 -11 -12 -12 -13 -13 -14 -15 -16 -16 -16 -16 -16 -17 -18 -19 -19 -19 -19 -19 -19 -18 -18 -17 -16 -16 -16 -16 -14 -13 -13 -13 -13
-12 -11 -11 -11 -11 -11 -11 -12 -11 -11 -12 -12 -12 -12 -12 -12 -12 -12 -12 -12 -13 -14 -14 -16 -16 -16 -16 -16 -17 -17 -19 -19 -20 -20 -20 -20 -19 -18 -19 -18 -16 -16 -15 -16 -14 -14 -14 -13 -13
-11 -11 -11 -11 -11 -11 -12 -12 -12 -11 -12 -12 -12 -12 -12 -12 -12 -12 -12 -13 -13 -14 -14 -15 -16 -16 -16 -17 -18 -18 -19 -20 -20 -20 -20 -20 -19 -19 -19 -18 -16 -16 -15 -15 -15 -15 -14 -14 -13
-11 -11 -11 -11 -11 -12 -12 -12 -12 -12 -12 -12 -12 -12 -12 -12 -12 -12 -13 -13 -13 -14 -14 -15 -16 -16 -16 -17 -18 -19 -20 -20 -20 -20 -20 -20 -19 -19 -19 -18 -17 -15 -15 -15 -15 -15 -14 -14 -13
-12 -12 -11 -11 -11 -11 -11 -12 -12 -12 -12 -12 -12 -12 -12 -12 -12 -12 -13 -13 -13 -14 -14 -15 -15 -16 -16 -17 -19 -19 -20 -20 -21 -21 -20 -20 -20 -19 -19 -18 -17 -15 -16 -15 -15 -15 -14 -14 -14
-12 -12 -12 -11 -11 -11 -11 -12 -12 -12 -12 -12 -12 -12 -12 -12 -12 -12 -13 -13 -13 -14 -14 -15 -15 -16 -17 -18 -19 -19 -20 -20 -20 -20 -20 -20 -20 -19 -19 -18 -16 -16 -16 -16 -15 -15 -14 -14 -14
-12 -12 -12 -11 -11 -11 -11 -11 -12 -12 -12 -12 -12 -12 -12 -12 -12 -12 -13 -13 -13 -14 -14 -14 -16 -16 -17 -18 -19 -19 -20 -20 -20 -20 -20 -21 -21 -20 -19 -19 -18 -17 -16 -16 -15 -15 -14 -14 -14
-12 -12 -12 -12 -11 -11 -12 -12 -12 -12 -12 -13 -12 -12 -12 -12 -12 -12 -13 -13 -13 -14 -14 -14 -15 -16 -16 -17 -18 -19 -19 -19 -20 -20 -20 -21 -21 -20 -19 -19 -20 -18 -16 -16 -15 -15 -14 -14 -15
-12 -12 -12 -12 -12 -12 -12 -12 -12 -12 -12 -12 -13 -13 -13 -12 -13 -12 -13 -13 -13 -14 -15 -14 -15 -16 -16 -17 -18 -19 -19 -19 -20 -21 -21 -21 -21 -20 -19 -19 -19 -19 -17 -16 -15 -14 -14 -15 -14
-13 -12 -12 -12 -12 -12 -12 -12 -13 -13 -13 -13 -13 -13 -13 -13 -12 -13 -13 -13 -13 -14 -14 -14 -15 -16 -16 -16 -17 -18 -18 -19 -19 -20 -20 -21 -21 -20 -19 -19 -19 -19 -17 -16 -15 -15 -15 -14 -14
-13 -13 -13 -12 -13 -12 -12 -13 -13 -13 -13 -13 -13 -13 -13 -13 -13 -13 -13 -13 -13 -13 -14 -14 -14 -16 -16 -16 -16 -17 -18 -18 -19 -19 -20 -20 -20 -19 -19 -18 -17 -17 -17 -16 -16 -15 -15 -14 -14
-13 -13 -13 -13 -12 -12 -12 -12 -13 -13 -13 -14 -13 -13 -13 -13 -13 -13 -13 -13 -13 -13 -14 -14 -14 -16 -16 -16 -17 -17 -17 -18 -18 -18 -19 -19 -20 -19 -18 -18 -17 -17 -17 -16 -16 -15 -15 -15 -14
-13 -13 -13 -13 -13 -12 -12 -12 -13 -14 -13 -14 -14 -14 -13 -13 -13 -13 -13 -13 -13 -13 -14 -14 -14 -14 -16 -16 -16 -17 -17 -17 -18 -17 -17 -18 -19 -18 -17 -16 -16 -16 -17 -16 -15 -16 -15 -15 -15
-14 -14 -13 -13 -13 -13 -13 -12 -12 -13 -13 -13 -14 -14 -13 -13 -13 -13 -13 -13 -13 -13 -13 -14 -14 -14 -15 -15 -16 -16 -16 -17 -17 -17 -17 -17 -17 -17 -16 -15 -16 -16 -16 -16 -15 -15 -14 -15 -15
-14 -14 -13 -13 -13 -13 -13 -13 -13 -13 -13 -13 -14 -14 -13 -13 -13 -13 -13 -13 -13 -13 -13 -14 -14 -14 -14 -15 -15 -16 -15 -16 -17 -16 -16 -16 -16 -16 -16 -16 -15 -16 -16 -15 -15 -15 -15 -15 -15
Height
5849 5848 5848 5847 5849 5846 5844 5844 5842 5842 5840 5838 5838 5836 5835 5833 5831 5831 5827 5825 5823 5821 5819 5817 5815 5813 5810 5809 5808 5808 5808 5808 5807 5807 5806 5806 5807 5808 5808 5809 5810 5811 5813 5815 5818 5821 5823 5824 5826
5846 5846 5846 5845 5846 5844 5843 5843 5842 5840 5839 5837 5835 5834 5832 5831 5828 5826 5824 5822 5820 5818 5815 5812 5810 5807 5804 5803 5802 5801 5800 5801 5800 5800 5800 5799 5800 5801 5803 5804 5806 5807 5808 5810 5812 5815 5817 5819 5821
5843 5843 5844 5843 5842 5842 5841 5840 5839 5838 5836 5835 5833 5832 5830 5828 5826 5823 5821 5818 5816 5814 5811 5808 5806 5803 5800 5797 5794 5793 5792 5791 5792 5792 5792 5792 5793 5795 5796 5798 5801 5802 5803 5805 5806 5809 5812 5814 5816
5842 5841 5841 5841 5840 5839 5838 5837 5837 5835 5834 5833 5831 5830 5828 5825 5823 5820 5817 5815 5812 5808 5805 5801 5799 5796 5793 5790 5788 5785 5782 5781 5781 5782 5783 5783 5783 5786 5789 5791 5794 5795 5797 5799 5800 5802 5806 5809 5812
5839 5838 5838 5838 5837 5836 5835 5834 5833 5833 5831 5830 5828 5826 5824 5822 5819 5817 5814 5810 5807 5803 5798 5795 5792 5788 5783 5780 5777 5774 5772 5769 5769 5771 5771 5774 5774 5777 5780 5783 5785 5789 5792 5793 5794 5796 5800 5802 5805
5836 5836 5834 5834 5833 5833 5832 5830 5830 5829 5828 5826 5825 5822 5820 5817 5814 5811 5808 5804 5800 5795 5792 5788 5783 5778 5773 5768 5764 5760 5757 5754 5753 5755 5758 5761 5764 5769 5770 5775 5778 5781 5786 5788 5788 5791 5794 5796 5798
5833 5832 5831 5830 5830 5829 5829 5826 5826 5825 5824 5822 5821 5819 5816 5812 5809 5806 5803 5798 5794 5789 5784 5779 5773 5767 5761 5755 5749 5743 5739 5736 5735 5739 5742 5747 5752 5758 5763 5765 5770 5773 5777 5783 5783 5785 5787 5789 5791
5830 5829 5828 5827 5826 5826 5825 5823 5823 5822 5821 5819 5817 5815 5812 5809 5805 5801 5797 5793 5788 5783 5776 5770 5763 5755 5747 5739 5733 5727 5724 5722 5722 5723 5727 5731 5738 5746 5750 5755 5760 5765 5769 5774 5776 5778 5779 5783 5786
5827 5827 5826 5824 5823 5822 5820 5819 5818 5818 5817 5814 5812 5810 5808 5804 5800 5797 5792 5788 5782 5776 5769 5762 5753 5744 5735 5727 5721 5715 5711 5709 5710 5711 5713 5717 5723 5731 5738 5747 5752 5755 5759 5763 5767 5771 5770 5775 5780
5824 5824 5823 5822 5820 5818 5817 5816 5814 5814 5812 5810 5808 5806 5803 5800 5796 5792 5787 5782 5776 5768 5760 5751 5742 5733 5727 5721 5715 5707 5702 5698 5699 5701 5703 5706 5709 5716 5724 5732 5738 5744 5748 5753 5757 5760 5761 5768 5773
5820 5820 5819 5818 5816 5815 5813 5811 5810 5809 5808 5806 5804 5802 5799 5795 5791 5787 5782 5775 5768 5760 5751 5741 5733 5726 5719 5711 5705 5701 5696 5692 5689 5691 5694 5696 5699 5704 5712 5718 5726 5733 5737 5744 5748 5749 5756 5761 5767
5818 5816 5815 5814 5812 5811 5810 5809 5807 5805 5804 5801 5799 5798 5795 5791 5787 5782 5776 5769 5761 5752 5743 5732 5724 5716 5709 5702 5695 5690 5686 5684 5682 5682 5685 5687 5691 5694 5700 5708 5716 5724 5730 5737 5740 5744 5751 5756 5761
5814 5813 5811 5810 5810 5809 5807 5805 5803 5801 5799 5797 5796 5793 5790 5786 5782 5777 5771 5763 5754 5745 5735 5725 5717 5709 5700 5692 5686 5681 5677 5673 5673 5673 5676 5678 5681 5685 5692 5701 5710 5715 5720 5730 5735 5739 5745 5750 5755
5811 5810 5809 5808 5807 5805 5804 5802 5800 5798 5796 5794 5792 5789 5786 5781 5777 5772 5765 5757 5748 5738 5727 5718 5710 5701 5690 5681 5675 5670 5665 5662 5660 5662 5664 5668 5672 5677 5683 5693 5702 5707 5714 5722 5730 5735 5740 5746 5750
5807 5807 5806 5805 5804 5802 5801 5799 5796 5794 5792 5790 5788 5785 5781 5777 5772 5766 5759 5751 5742 5732 5721 5712 5702 5692 5681 5672 5664 5659 5654 5649 5648 5649 5651 5654 5661 5667 5674 5682 5691 5700 5709 5715 5725 5732 5737 5742 5747
5803 5803 5802 5801 5800 5799 5799 5794 5793 5790 5787 5786 5783 5780 5776 5772 5767 5762 5755 5746 5736 5725 5714 5705 5696 5683 5672 5662 5654 5647 5642 5637 5637 5638 5639 5641 5649 5658 5665 5675 5686 5694 5705 5712 5718 5726 5732 5737 5742
5799 5799 5797 5797 5796 5794 5793 5790 5788 5786 5783 5780 5779 5776 5772 5767 5763 5757 5750 5741 5731 5720 5709 5698 5688 5676 5665 5653 5645 5638 5631 5628 5629 5629 5631 5634 5640 5650 5658 5666 5679 5689 5698 5705 5714 5719 5725 5733 5739
5795 5794 5793 5792 5792 5789 5787 5787 5781 5783 5780 5777 5775 5772 5768 5764 5759 5754 5747 5738 5727 5716 5703 5692 5681 5669 5657 5645 5636 5629 5623 5623 5624 5625 5627 5629 5635 5643 5651 5661 5671 5682 5691 5699 5707 5715 5723 5729 5734
5790 5790 5789 5787 5785 5784 5781 5781 5779 5778 5776 5773 5771 5768 5765 5760 5756 5750 5743 5734 5724 5712 5700 5688 5676 5662 5650 5639 5630 5622 5618 5619 5620 5622 5624 5626 5631 5639 5647 5656 5666 5676 5686 5696 5702 5711 5717 5724 5730
5786 5785 5784 5783 5779 5778 5777 5777 5775 5773 5771 5769 5767 5764 5761 5757 5752 5747 5740 5731 5721 5710 5698 5685 5672 5658 5646 5634 5626 5619 5617 5617 5617 5620 5621 5623 5627 5634 5641 5652 5662 5670 5681 5689 5698 5707 5715 5721 5725
5782 5781 5780 5779 5776 5774 5771 5773 5770 5769 5767 5765 5763 5761 5757 5753 5749 5744 5738 5729 5719 5708 5697 5683 5670 5656 5644 5632 5624 5618 5617 5615 5616 5618 5618 5619 5623 5629 5638 5647 5655 5664 5674 5683 5693 5702 5712 5718 5723
5778 5777 5776 5775 5773 5771 5768 5769 5766 5765 5763 5762 5760 5757 5754 5750 5746 5742 5735 5727 5718 5707 5696 5682 5668 5656 5644 5632 5624 5620 5617 5616 5615 5614 5614 5615 5618 5624 5633 5643 5650 5659 5670 5680 5688 5698 5708 5715 5722
5775 5773 5772 5771 5769 5768 5766 5765 5762 5760 5760 5758 5756 5754 5751 5748 5744 5739 5733 5726 5717 5706 5695 5683 5670 5656 5645 5635 5626 5622 5618 5616 5614 5612 5610 5611 5613 5620 5629 5640 5651 5656 5668 5681 5689 5696 5707 5713 5719
5769 5769 5768 5767 5766 5765 5762 5762 5760 5758 5756 5753 5751 5751 5749 5745 5742 5738 5732 5725 5717 5706 5695 5683 5671 5659 5648 5638 5631 5625 5621 5617 5613 5610 5608 5608 5611 5618 5628 5642 5651 5658 5669 5680 5688 5699 5706 5711 5717
5765 5764 5763 5763 5763 5762 5759 5758 5756 5755 5753 5751 5749 5747 5746 5743 5740 5736 5731 5724 5717 5708 5696 5686 5673 5663 5652 5642 5634 5629 5623 5618 5615 5612 5609 5606 5611 5619 5630 5643 5654 5660 5671 5680 5688 5696 5704 5709 5714
5760 5760 5759 5755 5757 5759 5756 5753 5752 5750 5749 5748 5745 5744 5742 5740 5737 5734 5729 5724 5718 5709 5699 5688 5676 5667 5656 5645 5638 5633 5627 5622 5620 5617 5616 5613 5617 5625 5636 5647 5657 5666 5673 5680 5689 5697 5704 5708 5712
5755 5755 5755 5752 5751 5752 5754 5752 5748 5746 5745 5744 5742 5740 5739 5737 5735 5732 5729 5724 5718 5711 5701 5692 5681 5670 5661 5652 5643 5637 5632 5628 5625 5623 5623 5622 5623 5629 5640 5651 5662 5669 5676 5683 5691 5698 5703 5708 5712
5750 5750 5749 5747 5745 5745 5749 5748 5743 5742 5741 5740 5738 5736 5735 5734 5732 5730 5728 5723 5718 5712 5705 5695 5686 5676 5667 5658 5650 5642 5637 5633 5631 5632 5630 5629 5630 5638 5648 5657 5663 5671 5678 5684 5693 5698 5704 5707 5712
5745 5744 5743 5742 5742 5740 5741 5745 5738 5736 5737 5736 5734 5732 5730 5731 5730 5728 5726 5723 5718 5713 5707 5700 5691 5682 5673 5665 5657 5647 5641 5640 5637 5637 5639 5640 5642 5646 5653 5661 5670 5677 5684 5687 5694 5699 5703 5706 5711
5739 5738 5737 5737 5737 5737 5735 5740 5733 5731 5732 5733 5731 5728 5727 5727 5727 5726 5724 5722 5718 5714 5710 5704 5696 5688 5680 5672 5664 5655 5649 5648 5646 5644 5644 5646 5649 5652 5657 5664 5671 5676 5682 5688 5692 5698 5703 5707 5711
Wind_Speed
12 12 10 8 9 7 7 7 8 10 12 11 13 12 13 15 16 16 20 20 21 24 25 27 29 32 34 35 34 33 29 30 30 34 30 31 29 29 31 30 27 25 23 23 24 25 24 25 25
13 14 14 13 12 10 10 10 11 11 13 14 13 15 15 16 17 17 18 21 23 24 26 27 29 32 35 37 36 34 36 32 34 38 36 36 32 31 31 31 30 28 24 25 26 27 24 25 25
12 13 14 14 14 13 13 13 12 13 14 17 16 15 16 17 18 19 20 22 24 27 29 31 32 32 33 36 38 37 36 38 35 36 42 40 38 33 34 31 32 29 28 28 28 26 26 25 25
15 14 14 15 16 15 15 15 15 16 16 18 18 17 17 17 20 22 22 23 26 30 34 37 36 39 39 40 39 39 40 40 39 36 38 40 42 38 35 35 29 34 29 30 29 29 28 26 26
15 15 16 17 17 16 16 16 17 18 18 20 19 19 17 19 20 22 22 26 30 34 38 41 43 45 46 46 47 47 46 46 43 38 39 29 37 36 39 38 33 31 35 32 31 29 25 27 27
15 15 16 18 18 16 16 16 18 19 20 21 20 20 19 20 24 25 27 30 34 37 41 44 47 51 51 52 54 54 54 52 47 42 41 50 42 41 37 40 41 32 28 34 30 26 26 27 29
13 15 14 17 17 16 16 15 17 18 20 21 19 19 20 22 25 27 29 33 36 41 45 47 52 54 54 55 55 56 54 50 50 47 43 48 50 44 35 40 39 35 32 31 32 33 27 29 31
15 15 14 15 17 18 17 16 17 18 19 19 19 20 21 25 27 29 32 34 38 43 46 51 53 54 53 52 52 52 48 45 46 46 45 45 53 48 30 36 36 38 25 33 32 34 37 34 27
16 16 15 15 17 19 19 18 18 18 18 18 17 19 23 26 27 29 31 35 40 44 48 51 52 49 46 41 43 42 41 42 39 39 39 41 55 54 50 39 36 39 38 35 39 38 35 41 34
18 17 17 15 16 18 18 19 18 19 20 18 17 20 23 26 28 28 31 36 41 47 51 52 48 44 42 41 38 36 35 35 39 36 33 36 45 60 55 48 44 41 40 37 31 37 41 38 40
18 18 18 17 16 18 17 18 19 21 21 18 18 21 23 27 28 28 32 39 43 50 53 50 43 39 41 42 40 34 33 32 33 37 33 32 36 50 58 56 50 50 39 37 33 39 44 40 38
17 18 19 18 17 18 19 20 20 21 21 18 18 19 23 27 27 28 34 40 45 51 50 45 43 44 43 43 41 39 36 35 28 35 31 32 33 37 51 59 54 48 44 29 31 36 44 34 29
18 17 17 18 19 19 20 20 21 21 20 19 18 19 24 27 27 29 35 42 47 51 47 43 44 45 45 43 39 38 39 34 33 30 37 36 32 34 42 50 49 50 46 29 25 29 31 29 27
19 18 18 19 20 20 20 21 22 22 20 20 19 20 25 26 27 30 36 43 49 51 47 42 46 46 46 42 38 37 34 38 35 34 36 37 37 33 37 42 36 45 43 41 29 26 21 24 31
19 17 18 20 22 22 23 23 22 21 20 19 21 22 25 25 26 31 37 44 48 51 45 41 47 51 47 41 36 38 37 33 35 32 33 35 42 37 38 49 49 41 50 41 32 37 34 24 28
18 18 18 21 24 25 24 26 23 23 21 20 21 22 24 23 27 31 37 43 49 51 45 43 50 49 44 40 35 36 36 30 29 26 27 31 41 39 39 52 43 47 41 42 32 31 30 30 30
18 19 19 21 25 27 25 26 23 22 22 21 21 22 22 23 27 31 37 43 47 51 44 43 51 48 47 42 35 36 31 18 21 18 19 26 38 39 39 48 48 32 43 51 30 22 30 33 27
19 20 20 23 26 28 26 23 29 21 22 21 21 21 21 23 27 30 35 41 46 50 47 44 50 51 47 38 34 34 21 14 16 15 15 20 35 37 37 45 52 33 34 44 45 27 26 28 25
19 19 20 24 27 23 24 23 26 23 21 21 20 20 21 22 25 29 34 40 45 49 51 45 49 51 45 36 34 24 11 12 14 12 16 20 31 35 38 43 49 40 36 30 37 31 23 31 29
17 17 19 22 23 22 22 21 23 22 21 20 19 19 20 21 23 27 31 38 43 48 52 46 50 48 43 38 35 18 8 10 14 14 15 19 25 36 36 42 44 48 32 30 31 37 31 30 28
17 19 21 21 21 21 23 18 21 21 20 20 17 18 19 19 23 26 29 36 41 46 51 48 49 46 42 39 32 17 12 8 8 10 12 16 28 36 38 47 51 46 29 30 33 36 38 25 26
18 20 21 20 19 20 20 18 18 19 18 17 17 18 18 18 22 25 28 34 40 44 50 52 48 46 41 38 30 18 10 4 7 10 11 15 26 37 40 42 54 42 35 28 27 31 37 31 27
20 21 21 19 19 20 21 19 18 18 17 17 19 18 18 16 21 24 27 32 38 42 47 52 46 44 42 35 28 18 11 10 9 10 10 14 23 42 42 37 33 39 39 29 32 20 26 27 27
23 23 23 19 19 19 21 19 16 17 17 18 17 17 17 16 19 23 27 29 35 40 44 49 44 44 40 35 26 19 16 15 10 9 7 10 23 41 41 37 32 31 35 29 32 26 15 17 24
23 25 26 23 18 18 20 20 18 17 18 19 17 16 17 17 18 21 26 28 33 37 42 45 44 41 37 32 23 17 17 18 13 8 7 9 24 39 39 35 29 27 29 26 30 25 10 13 19
25 26 26 27 21 15 18 22 19 18 18 18 16 15 17 17 18 20 23 26 30 34 38 42 44 38 39 30 27 25 18 16 16 11 9 17 25 37 36 34 25 26 25 29 24 22 13 12 22
24 25 26 27 25 19 16 21 23 20 20 18 15 16 17 17 17 19 21 24 26 31 34 38 43 36 35 36 27 19 20 21 9 12 7 12 10 39 34 33 22 26 29 23 29 18 17 13 20
25 26 26 26 29 26 18 18 24 21 21 20 17 16 17 15 16 18 18 21 25 27 31 33 39 40 35 33 36 27 16 15 19 19 21 15 22 37 34 27 22 24 23 18 30 15 13 10 10
27 27 27 27 25 28 25 16 27 25 19 21 15 14 17 15 15 17 16 19 21 25 28 31 33 40 31 34 36 34 22 19 18 15 11 20 20 35 43 36 34 30 25 20 19 12 16 17 15
29 29 28 28 26 24 25 17 25 25 21 19 13 12 16 15 13 14 16 16 18 22 24 27 29 34 39 31 34 38 28 21 16 20 18 21 25 31 32 34 35 32 33 28 26 23 16 12 12
Wind_Direction
307 311 312 313 315 327 336 341 349 356 353 350 346 346 350 358 0 358 1 357 347 342 338 336 332 329 327 324 320 314 301 289 283 267 264 264 258 255 256 250 254 253 251 244 238 240 233 236 238
295 298 297 298 296 300 307 321 330 338 339 340 340 341 345 349 355 353 351 350 345 341 335 332 329 326 325 323 319 313 309 295 284 272 261 263 261 250 252 249 248 250 250 247 243 239 234 235 239
285 290 291 295 291 290 295 303 313 325 326 330 332 334 340 342 348 350 348 346 341 336 334 330 328 330 327 322 317 309 302 298 286 276 269 259 259 253 246 247 247 248 245 243 242 241 236 234 236
293 295 292 292 290 285 288 296 301 316 320 320 321 325 334 337 340 345 343 338 337 335 336 333 330 329 326 322 315 304 297 290 283 268 264 261 255 252 244 243 244 247 248 243 243 237 237 230 234
289 292 294 292 291 289 286 287 294 305 314 316 315 319 327 334 338 341 335 332 331 334 332 331 328 328 324 318 312 304 295 287 277 265 251 240 249 254 247 242 235 239 244 249 239 242 237 232 232
293 295 299 299 293 288 290 293 295 297 304 308 311 313 321 334 340 337 335 332 333 331 329 329 331 326 321 314 307 300 291 281 270 258 248 238 248 245 245 238 239 232 238 249 241 235 239 238 232
300 301 301 298 298 294 291 293 296 299 301 303 306 310 317 328 335 335 334 330 331 330 331 333 330 323 316 311 301 292 283 277 271 263 251 242 233 232 250 234 234 232 233 240 247 244 242 239 240
311 313 305 302 299 295 295 301 302 299 301 302 304 310 316 326 331 333 335 331 329 331 332 334 328 321 314 306 299 295 286 274 267 264 254 242 228 225 238 236 225 229 226 247 230 245 235 230 236
309 309 306 300 298 299 302 304 302 302 308 309 311 315 321 328 330 333 332 329 332 334 337 332 326 317 313 314 311 306 291 272 261 259 257 244 226 225 222 229 229 231 234 222 239 234 228 233 232
307 304 300 301 305 305 308 304 302 305 309 310 316 321 327 329 330 334 332 332 336 337 340 332 325 321 319 316 313 311 303 285 262 255 253 248 237 223 222 221 220 221 218 221 231 236 228 232 229
302 298 299 303 305 303 305 303 304 305 309 309 317 324 330 328 329 334 334 336 340 342 340 330 326 323 320 315 308 303 299 298 272 251 249 250 245 233 222 222 221 227 225 218 223 212 224 225 233
304 298 300 305 302 301 303 304 307 307 307 305 315 325 327 327 330 336 337 341 342 345 337 331 328 325 321 317 308 296 289 287 282 250 249 250 246 242 226 224 223 225 225 231 221 234 228 217 214
299 297 300 303 306 302 301 304 307 304 307 306 316 327 327 329 333 339 341 342 346 344 337 334 331 327 320 314 307 300 287 278 270 261 248 246 245 240 229 223 226 228 222 207 215 210 219 217 226
300 297 303 306 306 304 305 309 312 309 309 308 317 329 329 330 334 343 344 347 349 345 339 337 335 327 324 313 302 306 300 280 269 260 251 251 239 233 224 209 208 225 226 221 209 178 195 207 202
297 297 302 309 309 307 304 306 310 308 305 309 318 327 329 332 337 345 348 349 349 349 341 337 334 332 328 319 309 305 305 285 272 259 258 247 231 226 219 206 221 224 221 223 216 227 220 207 196
295 301 300 308 312 305 304 303 306 307 306 309 316 324 331 332 339 348 351 352 350 349 340 335 335 335 332 322 310 312 314 287 269 263 257 233 218 221 214 203 205 213 209 225 217 207 219 205 207
295 300 301 306 312 309 299 299 297 308 309 309 315 323 333 332 339 350 354 352 349 348 340 337 339 339 335 325 314 315 316 281 265 255 237 226 211 212 210 208 200 195 202 215 204 195 203 214 204
294 295 299 307 307 305 298 293 296 306 307 308 315 321 331 330 338 349 356 353 349 348 347 342 343 340 337 331 322 324 311 278 253 249 232 228 209 208 207 207 198 201 204 205 219 228 205 208 213
292 294 297 305 304 304 298 295 294 304 307 309 312 321 330 328 337 347 357 353 350 351 353 344 344 344 341 333 328 334 313 281 241 248 237 226 211 208 203 204 201 190 185 188 218 222 204 202 193
293 297 302 308 308 307 304 298 297 302 307 310 312 318 326 325 335 345 0 355 353 352 355 350 348 348 352 338 342 342 318 286 244 243 243 228 214 207 204 201 188 182 183 193 197 214 208 200 190
300 301 309 315 313 311 304 303 296 300 306 305 312 314 321 324 335 344 360 358 355 353 356 354 354 356 356 349 354 359 330 298 238 258 247 238 212 205 203 200 187 171 166 184 198 192 204 193 187
299 302 312 316 314 307 302 307 298 306 307 310 313 310 319 325 336 345 357 1 357 354 358 358 357 3 3 3 9 5 353 325 286 286 269 234 212 204 203 203 207 186 165 175 191 191 197 206 196
297 301 306 313 313 309 304 307 308 309 313 313 308 308 315 323 334 345 355 6 3 357 358 359 0 4 10 10 12 15 23 4 319 289 277 221 200 203 201 197 201 212 178 184 171 171 195 201 206
294 297 299 306 311 311 308 308 306 311 316 310 309 310 315 318 330 346 351 5 6 2 357 1 2 9 17 16 19 25 21 6 346 320 300 217 189 196 199 188 196 213 190 174 163 160 173 184 201
291 295 298 299 302 308 308 307 306 307 310 315 317 311 315 313 321 339 348 359 9 6 1 4 4 11 22 22 18 21 16 16 18 5 20 197 176 185 188 182 182 198 189 183 183 186 173 189 190
287 292 297 299 302 303 306 308 309 305 306 313 322 315 311 312 313 329 343 352 13 11 9 6 9 12 22 26 25 28 34 29 35 22 49 113 145 173 181 176 176 182 184 190 185 198 204 193 184
282 288 292 296 297 301 301 304 306 303 302 301 306 316 303 307 311 321 336 349 5 15 14 11 13 12 20 24 23 28 28 54 43 37 49 86 126 171 174 171 167 172 173 183 194 195 188 184 177
286 286 292 292 294 298 302 303 305 305 302 300 305 301 297 302 308 316 330 345 356 17 18 15 17 18 23 27 38 29 21 34 44 84 65 88 134 145 149 150 162 164 176 163 196 210 229 227 172
283 287 289 292 295 296 300 300 294 304 303 299 301 295 294 294 301 312 325 338 357 4 20 24 20 22 27 29 37 41 44 53 65 111 97 124 130 151 143 148 155 155 167 170 183 179 165 167 174
279 282 284 286 294 302 298 306 292 294 301 309 323 284 295 288 293 307 322 334 348 359 12 26 27 28 30 35 40 47 47 63 71 92 94 84 124 142 150 148 148 154 161 161 165 159 159 181 196